User: anonymous   Login
Location: Unspecified
(0.0000°N, 0.0000°E)
Time: 15:53:51
(UTC+00:00)
Language:

DNEPR OBJECT AF - Orbit

View from above orbital plane
View from above orbital plane
View from above satellite
View from above satellite

Ground track
Ground track

The orbit data is extracted from the following two-line orbital elements,

1 39445U 13066AF  19078.47190449 +.00000253 +00000-0 +37698-4 0  9991
2 39445 097.5686 098.8319 0057232 329.7326 030.0586 14.81733104285972
Epoch (UTC): 19 March 2019 11:19:32
Eccentricity: 0.0057232
inclination: 97.5686°
perigee height: 584 km
apogee height: 664 km
right ascension of ascending node: 98.8319°
argument of perigee: 329.7326°
revolutions per day: 14.81733104
mean anomaly at epoch: 30.0586°
orbit number at epoch: 28597

The dashed part of the orbit path shows where the satellite is in the earth's shadow,  

DLR